Theta_e
314 314 314 314 314 316 318 319 320 318 317 312 308 310 300 299 296 301 304 307 307 299 291 293 291 290 292 292 290 289 288 286 285 288 288 287 287 287 287 287 285 285 285 282 282 284 282 283 283 280 281 285 288 283 288 287 287 286 284 285 284 290 282 280 283 286 280 278 278 279 279 282 281 281 278 280 280 282 282 283 277 275 271 274 268 270 280
313 313 313 314 314 314 315 317 319 318 316 313 311 305 300 300 297 296 303 308 306 296 286 287 288 290 293 293 292 292 290 287 286 286 287 289 286 288 288 287 289 287 286 285 285 285 282 285 284 284 284 283 283 285 287 290 287 290 287 288 290 283 283 283 279 276 281 278 278 279 278 280 278 278 282 282 283 281 277 273 273 272 277 275 275 272 279
312 312 313 313 314 313 313 314 315 317 317 316 311 302 303 300 299 297 299 303 303 292 294 291 289 290 290 290 289 290 290 291 292 291 288 290 287 286 286 288 287 287 287 286 287 286 288 285 286 288 285 285 283 283 287 291 289 289 289 293 292 287 283 283 277 277 275 274 276 274 272 278 279 276 277 281 282 281 277 277 276 275 277 276 277 278 284
311 311 311 312 312 313 313 313 313 314 317 315 311 306 300 295 288 294 293 297 296 297 297 292 292 290 289 288 290 291 288 290 289 292 291 292 288 287 286 285 285 287 285 284 286 286 286 286 284 284 282 282 284 280 283 288 289 291 292 291 291 283 283 286 285 282 280 282 283 280 279 277 277 276 278 280 281 283 282 281 278 276 276 274 280 282 283
309 309 309 310 311 312 312 312 312 312 313 314 311 306 302 298 293 288 284 294 293 292 295 292 291 288 293 286 290 288 289 291 289 293 288 291 290 288 288 287 286 284 285 285 285 286 285 284 285 284 284 278 280 281 282 285 285 290 290 291 286 280 281 284 285 285 285 286 285 283 282 279 278 279 278 280 280 280 279 278 278 282 274 275 281 283 281
306 307 308 309 309 310 311 311 311 311 311 313 312 301 301 292 295 297 295 290 285 287 288 293 291 292 291 289 292 289 289 289 287 289 291 288 290 288 287 289 289 289 287 287 283 285 284 284 283 287 286 284 283 284 284 285 288 288 285 286 286 282 283 286 285 284 286 286 286 284 279 282 281 280 281 280 280 279 278 279 282 282 279 278 283 283 281
304 305 306 307 308 309 310 310 310 310 310 311 309 300 301 301 295 297 300 292 292 291 291 293 291 291 290 289 291 289 289 288 290 289 285 288 287 291 285 287 289 289 289 287 284 285 281 282 286 285 286 284 283 284 285 285 283 287 283 285 284 283 283 285 284 283 283 284 284 284 281 281 282 281 281 282 282 280 280 281 283 282 281 283 284 284 283
303 303 304 304 306 307 308 309 309 310 310 309 305 304 300 296 295 292 297 296 295 294 293 292 291 289 291 287 288 290 289 288 290 287 288 284 286 291 287 289 289 289 289 288 285 286 287 286 284 287 287 284 286 285 286 283 282 284 285 284 283 285 282 288 285 283 283 285 286 284 282 282 281 283 284 284 283 282 282 282 282 283 281 282 282 282 282
301 302 302 303 304 305 307 308 308 308 309 303 302 303 306 304 304 300 294 291 292 294 293 291 289 287 289 287 289 290 289 289 291 290 293 291 287 287 288 290 289 285 288 288 288 290 290 289 289 288 287 286 288 287 285 288 282 282 282 282 281 285 282 286 283 281 281 285 284 284 283 282 282 282 284 284 284 282 283 282 283 281 280 282 281 279 281
300 300 301 302 302 303 304 306 307 307 308 302 302 298 307 307 303 302 299 291 294 292 292 292 290 285 289 290 289 290 289 292 292 287 291 291 292 292 291 291 289 285 286 287 289 292 293 292 293 293 292 291 289 292 288 289 285 282 283 284 282 283 282 282 282 279 279 284 284 280 280 280 278 280 284 285 285 286 286 287 286 285 285 281 279 281 287
300 300 300 300 301 302 303 304 305 305 305 299 299 299 301 300 300 300 298 290 292 293 292 290 288 289 292 292 291 293 292 292 292 287 287 292 291 293 292 291 288 287 287 291 294 294 294 295 295 295 292 291 290 290 290 289 289 287 284 280 278 283 284 283 285 279 279 283 280 280 279 274 276 287 287 288 285 285 283 284 285 286 286 285 288 288 290
300 299 299 300 300 300 302 302 303 304 303 303 302 298 301 302 299 297 295 289 288 294 291 288 289 290 292 292 292 291 291 291 291 293 290 292 292 293 292 291 290 285 294 296 293 291 292 292 291 291 289 289 289 289 289 289 290 291 289 287 282 282 283 282 285 280 279 280 279 276 272 275 286 287 287 288 286 286 285 284 285 286 287 288 287 288 289
300 300 299 299 299 300 300 301 302 302 302 302 301 295 301 302 296 293 292 290 286 290 288 289 294 292 293 293 292 292 293 294 294 294 294 293 291 289 292 291 289 292 295 295 294 292 289 287 287 287 287 288 288 288 288 288 288 289 289 290 287 284 283 282 281 282 276 275 277 272 273 284 286 287 288 289 285 283 282 282 285 286 287 288 286 288 289
299 299 299 299 299 299 299 300 300 300 301 300 298 297 299 299 293 293 292 288 286 291 292 291 292 292 292 292 292 293 293 293 294 294 292 294 293 292 292 293 294 294 293 295 291 289 285 286 283 284 283 285 284 283 286 288 288 288 287 288 289 287 286 284 280 284 276 278 277 277 283 282 284 284 286 287 284 284 282 279 283 288 288 288 287 288 289
298 299 299 299 299 298 299 299 299 299 299 299 299 297 297 298 297 293 294 290 283 287 289 284 289 291 291 292 293 291 291 291 291 290 293 295 293 295 296 295 292 294 295 292 287 288 286 285 281 280 281 280 275 279 286 282 287 289 288 289 288 288 284 285 281 279 284 278 276 277 277 274 279 286 289 288 287 287 286 284 282 289 290 291 288 288 289
298 298 298 299 298 298 298 298 298 299 298 299 297 296 296 299 299 297 292 286 285 281 286 291 292 292 290 291 293 291 290 290 290 290 289 289 291 294 294 293 291 295 292 291 288 286 285 283 280 281 277 280 283 280 276 283 278 282 288 288 287 287 287 286 283 280 282 279 275 275 274 277 285 286 288 284 285 286 283 281 280 288 291 291 291 289 289
298 298 299 298 298 297 298 298 298 298 298 298 294 295 293 298 297 294 288 285 285 280 289 289 289 289 289 287 291 290 292 289 290 287 286 287 289 291 290 288 289 293 293 291 287 285 282 283 283 283 283 285 281 280 284 281 277 277 278 280 285 284 283 283 280 279 280 279 277 275 280 279 285 288 288 282 283 287 284 275 278 289 291 291 290 289 290
297 297 298 298 298 299 298 298 298 298 298 298 295 292 292 297 297 296 291 285 283 283 288 291 288 286 285 288 287 291 293 291 291 291 290 290 289 287 289 287 287 288 293 288 286 285 282 283 280 280 280 286 284 283 279 283 280 277 280 278 278 280 281 282 277 279 279 280 278 280 281 286 288 289 283 283 286 286 278 275 284 292 289 290 289 290 290
297 297 297 296 297 297 298 298 298 297 297 298 295 292 291 295 297 296 290 285 285 280 289 292 290 287 288 291 287 290 292 292 292 289 286 288 289 290 287 284 289 287 289 287 287 284 283 282 286 284 281 283 286 278 285 283 282 285 280 279 277 279 281 280 282 278 278 279 277 277 282 286 289 290 283 287 285 277 278 287 293 292 288 287 289 289 289
297 297 296 297 297 297 297 298 298 298 297 297 294 289 290 293 292 293 289 284 285 283 287 287 289 285 290 286 284 285 286 287 290 289 286 286 289 288 287 285 288 287 286 288 283 286 284 281 284 285 282 283 285 286 284 285 289 284 281 285 282 279 280 274 278 280 281 280 277 276 274 285 293 287 283 285 284 285 291 292 292 292 291 290 287 288 289
296 297 297 296 297 297 297 297 297 297 298 298 295 289 288 290 292 292 293 288 283 279 280 291 290 289 290 288 288 288 287 284 287 285 287 286 288 288 282 283 287 288 283 287 281 283 286 282 285 284 286 286 285 288 281 283 285 288 287 285 285 287 282 278 281 283 277 276 275 276 284 289 292 288 284 286 289 293 293 292 291 293 293 291 290 287 288
297 297 297 296 296 297 296 296 297 297 297 296 296 292 286 290 291 291 291 291 285 281 282 287 288 288 289 290 290 290 289 289 289 291 286 283 287 287 285 285 284 287 287 289 285 284 286 285 287 285 282 285 287 284 286 283 280 286 289 287 281 287 287 287 283 286 284 280 284 288 290 290 291 292 292 292 292 293 293 293 293 292 293 292 291 291 288
297 296 296 296 296 296 296 296 296 297 297 297 296 289 286 288 286 292 290 285 286 286 286 286 286 287 289 290 292 292 292 292 291 290 289 284 282 285 284 284 284 290 289 290 286 287 287 287 284 287 285 286 284 283 285 285 283 287 284 289 289 292 293 292 289 287 291 292 291 288 289 291 289 291 294 293 292 292 292 291 291 292 293 293 290 291 290
296 297 297 296 296 297 296 295 296 297 297 297 296 289 287 288 287 289 286 286 281 277 280 282 279 275 281 282 287 290 291 291 292 292 294 291 282 282 286 287 289 287 286 290 293 287 285 286 285 287 283 287 289 283 282 282 284 287 287 286 289 290 292 290 287 289 287 283 292 291 290 291 290 290 290 292 293 293 292 291 291 292 293 291 288 290 289
295 297 298 297 296 295 295 296 296 296 296 296 294 293 291 289 289 289 284 278 278 276 271 274 279 282 286 287 287 284 287 292 295 293 293 293 290 285 283 289 293 288 287 290 291 288 286 283 284 285 281 287 289 283 288 285 284 291 284 286 288 286 292 289 287 288 286 286 291 292 293 293 292 291 289 289 290 291 292 292 292 292 292 292 291 288 287
296 295 297 297 296 295 295 296 296 296 296 297 295 289 287 286 287 288 288 285 282 278 274 273 276 279 280 281 280 284 287 288 286 287 291 293 294 293 291 291 290 293 291 291 290 285 284 284 284 284 282 282 293 285 285 287 286 289 287 286 290 286 289 286 288 287 288 290 290 291 291 290 290 290 290 291 291 291 291 292 291 290 289 289 288 287 289
295 296 296 296 295 295 295 295 296 295 296 297 294 289 289 288 287 285 284 285 280 275 277 273 277 277 277 279 282 283 283 283 283 283 284 284 285 286 287 286 285 286 286 285 287 287 286 284 284 281 284 283 288 286 287 286 286 285 285 288 290 288 284 287 287 284 284 285 288 290 286 285 290 292 292 291 291 291 291 290 289 289 289 290 289 288 287
295 295 296 296 296 296 295 295 295 295 296 296 294 291 287 286 287 288 287 287 282 274 275 274 273 274 279 275 282 284 284 284 283 282 282 282 283 283 283 282 283 282 282 282 280 282 282 281 280 286 286 284 285 283 288 288 287 285 285 287 291 288 288 289 285 285 284 289 292 292 292 291 293 293 294 294 293 291 290 290 290 291 291 291 290 289 289
295 296 296 296 296 296 296 295 295 296 296 295 288 284 284 286 288 290 289 289 286 279 277 279 281 280 273 277 282 277 280 281 281 281 281 281 282 283 282 282 282 282 282 282 281 281 280 280 284 282 282 288 286 282 286 281 281 281 284 290 291 291 293 292 291 291 291 293 293 293 292 290 292 294 294 295 294 292 291 292 292 291 291 291 290 290 289
295 296 295 295 295 295 295 295 295 295 296 289 285 283 278 279 286 286 290 289 286 282 276 275 273 275 282 276 272 278 280 281 280 280 280 279 280 280 281 280 280 283 281 280 280 276 279 280 281 283 285 288 282 280 280 279 279 282 289 291 291 292 292 293 294 291 290 294 294 294 294 293 295 295 295 295 294 294 292 291 292 292 292 292 291 291 290
294 295 295 295 295 295 295 295 295 295 295 284 279 275 275 273 281 289 291 290 287 282 277 279 275 281 279 275 280 278 279 281 281 279 279 280 280 281 281 282 281 282 278 279 279 278 280 277 279 280 284 285 284 280 279 279 278 280 286 289 290 291 291 292 293 294 294 294 295 295 294 294 295 294 293 293 293 293 291 291 291 291 292 291 291 291 292
295 296 295 294 295 294 295 295 294 295 290 283 282 280 280 279 283 286 290 290 287 282 278 274 274 272 268 274 274 278 280 280 280 277 278 280 277 279 279 280 278 282 282 279 280 280 278 280 279 279 280 283 285 280 280 279 276 277 283 285 286 288 290 291 292 293 294 294 293 291 290 292 294 292 292 294 293 292 292 292 293 292 291 291 292 291 290
294 294 294 293 294 295 295 294 295 292 287 289 292 294 294 294 294 293 292 287 284 278 279 275 270 274 271 265 268 270 276 275 274 277 274 281 276 278 276 281 280 280 286 281 276 276 279 280 280 278 280 284 280 279 279 277 278 283 284 285 286 286 287 288 289 291 292 293 292 288 287 290 292 294 294 294 295 295 294 293 292 291 290 288 287 288 288
294 294 294 293 294 294 294 294 294 294 292 285 282 284 287 293 292 291 287 283 277 277 273 271 269 270 270 271 269 272 278 270 269 276 268 276 276 278 274 278 279 276 277 278 278 280 278 280 277 277 280 279 281 278 274 278 283 283 284 284 285 286 286 286 287 287 288 289 291 292 293 293 294 295 294 293 293 294 293 292 290 288 288 288 288 289 289
294 293 293 294 294 294 294 291 286 285 281 283 282 283 284 292 293 292 290 283 274 273 272 271 272 265 264 262 265 271 277 271 270 274 270 270 279 274 274 273 272 275 273 283 277 278 276 277 281 277 274 280 278 273 275 279 280 282 283 283 284 284 284 284 284 286 287 288 289 289 290 291 291 290 291 292 293 293 293 292 291 289 288 287 288 288 288
293 294 293 293 292 290 285 287 282 280 278 280 281 289 292 292 293 290 289 286 283 275 275 270 270 265 267 266 265 267 277 267 271 272 269 270 269 270 274 271 269 274 276 276 272 275 275 278 279 273 279 276 273 277 279 281 281 281 282 282 284 284 283 283 284 285 286 287 287 288 289 289 289 289 290 291 292 292 292 291 291 289 287 288 288 287 286
293 292 292 288 285 282 278 276 283 281 279 283 287 292 292 291 285 285 282 280 280 281 273 267 268 267 270 270 269 266 272 269 274 268 265 269 264 269 270 268 268 273 273 269 270 271 275 281 274 271 271 271 273 279 280 280 280 280 280 282 283 283 283 283 284 284 284 285 285 286 287 287 288 288 289 289 290 290 290 289 290 288 286 287 288 288 288
293 293 283 279 279 275 272 273 275 278 291 290 291 282 275 279 272 277 278 278 280 281 274 275 271 274 271 268 267 276 274 269 274 265 263 268 270 264 269 270 270 273 267 270 272 278 275 273 272 271 271 276 278 278 279 280 280 281 281 281 282 282 283 283 283 282 281 281 281 282 283 284 285 286 287 288 289 289 289 290 290 290 289 289 289 289 289
288 282 279 279 277 273 272 270 281 291 287 285 278 271 270 272 274 272 272 274 274 272 277 275 272 276 274 272 273 279 275 271 266 262 264 271 269 262 269 266 268 273 265 269 269 280 270 270 272 272 271 275 276 278 281 281 282 282 282 283 283 282 282 283 284 284 283 283 283 284 284 283 283 285 286 287 288 289 290 290 290 290 290 289 289 289 288
279 276 276 277 277 278 284 284 291 286 283 273 267 267 266 270 269 265 273 266 267 271 276 270 276 275 276 272 271 270 277 270 267 267 269 269 274 264 267 268 265 269 264 264 265 277 270 265 268 268 267 271 275 278 279 280 278 276 272 269 268 269 270 272 274 275 276 278 282 284 286 286 287 286 286 286 286 286 288 288 289 289 289 289 289 288 287
278 277 277 276 276 279 281 281 279 275 274 272 271 270 267 264 265 265 268 264 264 263 267 267 269 269 273 274 273 270 277 274 269 271 268 265 272 273 265 265 271 266 264 266 270 270 267 266 266 267 269 274 275 276 271 265 264 265 265 266 265 266 267 268 268 269 271 272 275 278 281 284 286 286 286 286 287 287 287 288 288 288 288 288 287 286 288
280 280 278 280 280 280 280 278 276 274 274 274 269 267 269 267 266 261 263 263 265 262 262 266 262 267 268 273 271 272 268 271 267 272 268 265 273 269 265 267 269 266 263 270 270 265 266 265 266 267 272 274 269 261 260 260 260 260 261 262 263 264 264 264 265 267 268 269 270 273 276 280 282 285 286 287 287 287 288 288 288 288 288 288 287 285 278
288 284 281 277 278 277 278 273 277 274 269 268 266 263 267 263 264 263 261 264 260 262 264 268 269 275 272 272 268 269 271 278 273 269 271 267 275 270 265 266 266 262 266 267 265 263 265 265 266 269 274 265 257 259 258 258 260 259 259 261 262 262 263 263 264 265 266 267 268 270 274 277 280 283 285 286 287 287 287 287 288 288 288 287 285 282 279
284 282 278 276 274 275 275 266 275 267 267 268 265 262 264 260 262 258 256 260 260 264 267 268 267 269 266 266 266 269 270 272 278 269 266 270 268 263 267 263 266 269 272 264 262 264 266 267 270 271 263 257 259 257 259 258 258 259 259 260 261 261 262 262 263 263 263 265 266 269 271 274 278 281 284 285 286 286 286 287 287 287 285 282 279 278 277
278 276 274 272 268 273 270 265 271 265 263 265 268 262 262 261 265 265 265 266 266 266 268 266 266 266 265 267 265 266 273 268 273 266 265 269 264 264 263 261 266 265 261 264 266 267 265 267 267 255 256 256 256 257 257 258 258 258 259 258 259 260 260 260 260 261 262 263 264 265 268 271 275 279 281 283 285 286 285 285 286 282 280 279 278 275 273
274 273 271 269 266 269 266 263 258 254 260 266 266 266 267 266 262 262 264 263 263 265 265 265 264 266 265 266 265 265 267 267 265 264 266 266 263 263 267 265 265 262 263 264 263 263 265 268 258 253 256 255 256 256 257 257 258 258 258 257 257 258 258 259 260 260 261 262 263 264 266 269 273 277 280 283 282 281 282 282 281 280 278 276 274 272 271
274 275 271 269 267 266 261 259 261 262 261 261 262 265 265 265 264 263 260 261 262 264 263 262 263 266 265 265 263 262 264 266 263 266 266 261 262 266 272 263 262 263 261 261 263 264 267 258 253 255 254 255 255 255 256 256 257 257 257 258 258 258 258 258 259 259 260 261 262 263 266 270 274 277 279 279 274 273 274 275 275 275 275 273 271 270 270
269 274 272 266 265 266 261 263 259 261 260 260 260 259 261 262 262 259 257 258 260 262 259 261 262 264 264 267 266 264 263 266 263 265 266 264 268 263 264 263 263 264 264 263 265 260 256 254 254 254 255 255 255 255 255 256 256 257 257 257 257 257 257 257 258 258 260 260 262 263 266 270 274 276 275 271 270 271 271 271 271 270 270 269 269 269 269
271 269 268 266 266 265 263 262 260 264 259 256 258 257 258 260 258 256 256 257 257 255 258 258 261 264 261 266 263 264 262 266 262 264 268 264 262 262 263 261 262 262 264 256 255 251 252 254 253 254 254 254 254 255 255 256 256 257 257 257 257 257 257 257 258 259 260 261 263 266 271 274 273 271 271 270 268 268 269 269 269 269 269 269 268 268 268
273 271 270 266 264 264 262 261 263 260 254 255 255 255 256 256 256 254 256 254 256 255 260 265 267 265 265 266 262 264 262 266 265 266 262 260 262 262 263 261 263 264 258 249 250 252 253 253 253 252 253 253 254 255 255 256 257 257 257 257 257 258 258 258 258 259 261 264 270 275 274 272 272 271 268 267 267 267 267 267 268 268 268 268 268 267 265
277 274 269 267 266 265 263 264 264 262 258 254 254 255 255 254 255 254 256 254 254 255 259 261 265 265 265 266 265 261 263 263 260 261 261 262 262 260 259 262 259 246 246 250 252 252 252 252 252 252 252 253 254 254 255 256 256 257 257 257 257 258 258 259 259 260 263 267 269 269 269 268 267 267 267 267 266 265 264 264 265 266 266 266 265 264 263
270 268 266 262 260 259 262 259 256 254 253 253 252 253 254 252 254 253 256 255 253 257 259 260 261 263 263 261 262 262 264 263 263 262 261 260 251 256 260 251 246 247 249 248 249 251 252 252 252 252 252 253 254 254 255 256 256 257 257 257 258 258 258 259 259 260 262 266 268 267 267 267 267 267 266 266 265 263 261 261 262 263 263 263 263 263 262
Wind_Speed
12 11 11 12 14 14 15 19 20 20 21 10 7 6 4 8 8 4 15 19 21 14 11 9 10 10 4 5 4 1 1 4 3 8 5 4 5 2 5 7 4 7 5 1 4 9 6 9 9 3 4 8 13 5 10 10 7 5 1 5 2 4 2 3 9 8 1 4 2 1 1 3 1 5 1 6 13 17 16 13 4 8 2 5 1 5 20
13 12 11 11 11 12 13 14 18 19 20 10 8 10 7 8 6 3 7 18 18 16 14 13 16 13 7 6 7 3 5 4 3 6 6 9 4 11 7 1 9 6 3 4 7 7 5 8 7 4 7 7 4 10 10 15 7 9 9 9 8 4 5 6 5 3 8 2 3 3 4 1 4 5 10 11 7 6 2 3 1 2 15 7 9 17 19
11 11 11 11 12 11 10 11 13 17 20 18 9 9 4 3 3 3 4 9 13 17 12 12 10 16 17 13 14 10 4 8 16 10 8 6 6 2 5 7 3 5 4 4 4 6 17 6 6 11 6 8 1 7 15 14 9 6 2 2 9 7 6 9 8 15 15 15 15 8 5 11 5 2 2 10 19 16 4 8 9 13 9 13 8 19 26
12 12 12 12 13 11 10 10 11 12 16 20 11 5 2 5 5 3 3 7 10 10 3 1 9 13 14 12 14 11 10 7 4 12 11 10 2 4 1 2 3 6 3 6 9 13 7 11 3 4 5 3 0 2 5 12 3 4 2 5 9 3 4 13 16 15 17 18 13 2 8 5 6 6 10 13 12 17 14 11 10 18 3 8 18 28 28
18 16 13 12 11 11 11 11 10 12 11 19 12 6 4 1 9 9 8 2 10 10 11 9 5 10 12 10 6 19 19 10 3 12 6 10 13 2 5 5 3 5 9 13 17 15 10 6 9 12 11 0 1 2 4 3 3 2 3 2 3 2 5 12 17 20 19 17 19 8 9 7 7 8 9 15 15 14 18 17 25 7 3 17 24 26 14
19 20 17 13 12 12 11 11 10 9 14 13 11 8 3 7 2 8 8 13 13 15 17 17 17 8 9 11 5 9 9 11 12 2 9 2 8 10 2 11 17 19 20 16 11 11 10 5 14 18 8 4 1 0 1 6 1 4 0 1 4 4 9 13 16 18 18 20 23 12 5 8 7 9 13 16 16 14 19 26 28 11 18 26 24 15 15
18 19 19 18 14 11 11 11 10 9 11 8 10 10 4 6 2 3 8 10 5 24 21 25 23 22 19 10 14 15 16 20 18 8 2 5 5 17 13 19 27 27 22 13 12 7 6 14 16 10 10 8 3 5 1 1 1 5 2 2 3 2 8 9 8 12 11 17 19 9 7 7 9 10 13 19 20 17 22 28 26 27 25 20 20 19 22
17 17 18 19 19 16 11 11 10 9 10 6 8 12 9 9 7 5 4 10 8 9 11 9 16 17 18 14 15 16 21 22 14 4 9 7 10 13 20 25 22 20 18 13 12 17 20 19 15 8 11 1 7 6 7 2 3 0 6 4 3 7 8 10 7 9 13 17 17 10 7 10 15 17 19 26 24 16 22 24 28 22 12 18 19 19 24
18 17 16 17 18 19 16 12 11 10 8 4 5 5 11 4 4 2 3 10 11 11 11 11 13 16 14 14 16 15 20 21 18 16 12 23 10 9 26 25 16 3 10 15 24 28 27 23 26 10 13 14 7 6 4 8 5 4 2 2 1 6 5 4 4 10 15 15 17 12 8 11 13 17 26 32 26 22 22 25 18 8 19 20 13 16 23
21 17 16 15 16 18 19 16 12 10 8 6 3 8 2 8 2 2 5 12 11 17 10 13 9 15 15 17 24 17 24 25 18 13 6 11 15 14 19 19 15 4 11 20 26 29 24 23 20 17 6 4 5 12 6 12 11 8 8 3 6 6 3 4 8 12 17 18 10 3 3 0 5 18 32 26 21 24 29 23 11 15 15 15 18 24 24
18 18 18 16 15 15 17 18 15 12 5 6 4 5 5 6 5 5 4 11 6 13 12 14 17 11 12 23 19 21 17 17 14 17 9 12 19 17 13 11 9 12 18 26 16 7 10 10 11 10 8 8 8 7 7 5 5 8 7 2 2 5 10 12 8 14 11 14 8 5 5 14 20 15 4 10 24 23 24 21 19 18 13 18 20 23 24
21 21 20 19 17 15 14 15 16 14 9 6 6 7 5 4 8 5 7 13 12 11 14 15 17 13 20 21 23 23 24 24 22 23 26 14 8 12 15 13 11 14 15 0 8 4 6 4 4 2 3 6 8 7 8 11 15 12 9 10 7 10 12 13 9 10 13 4 9 6 14 18 17 2 10 13 12 14 17 15 16 17 18 22 25 27 29
19 20 20 21 20 18 14 12 12 13 12 6 6 8 4 5 6 5 6 8 6 8 12 14 14 20 18 17 18 22 22 25 24 19 17 16 9 6 12 16 17 21 3 9 7 7 6 6 4 4 6 5 6 6 12 16 22 18 12 16 15 15 13 8 7 8 3 4 9 12 19 7 5 13 17 15 4 8 3 14 14 16 17 20 21 24 30
20 19 19 20 21 19 19 15 11 11 12 9 5 6 6 6 7 5 4 5 5 5 10 10 12 16 17 21 20 19 17 19 16 15 18 13 18 18 8 8 12 4 8 9 6 6 0 2 7 4 8 5 4 7 17 24 22 19 21 20 20 19 12 9 11 9 12 10 14 20 6 13 16 19 19 21 14 12 13 18 17 16 19 22 18 23 28
21 21 21 20 19 20 19 19 18 14 11 11 4 5 5 4 5 6 4 5 9 5 4 7 4 17 19 18 14 15 12 13 14 18 15 12 12 12 16 11 4 7 6 5 3 4 7 3 6 6 4 7 8 12 5 7 9 25 23 21 20 18 19 13 14 8 13 13 12 9 8 15 16 25 33 6 6 9 9 7 15 16 30 20 16 25 26
20 19 19 20 22 21 20 19 18 18 17 14 6 5 5 4 4 5 5 3 4 8 5 12 10 8 9 13 15 19 15 12 13 9 10 11 13 11 10 6 5 8 5 5 5 5 6 10 11 10 11 10 7 1 5 4 3 4 21 25 20 18 18 15 16 10 8 12 12 12 12 15 15 24 22 5 8 10 4 3 13 20 30 16 22 21 22
21 19 19 19 18 21 22 19 19 19 18 16 7 5 6 3 3 3 1 2 4 9 12 10 6 6 6 6 7 13 12 13 11 10 9 11 14 14 2 3 3 12 12 11 5 6 7 11 8 11 8 4 5 7 3 5 4 2 5 3 21 18 14 13 14 16 14 14 13 14 10 13 15 20 18 6 5 9 7 5 15 26 22 18 17 17 22
22 21 19 19 18 18 18 20 20 18 17 17 10 6 5 2 5 6 5 6 7 7 6 2 6 2 5 2 5 4 5 6 8 8 11 7 4 4 6 4 6 5 11 14 6 10 12 11 14 12 16 8 2 2 12 7 7 6 8 9 8 12 11 14 20 17 20 22 18 10 8 8 11 19 2 10 7 7 2 16 23 22 6 11 13 19 20
22 21 20 20 20 19 17 16 17 19 19 17 8 5 4 3 1 3 5 3 4 6 2 3 1 8 8 8 5 6 4 6 5 6 3 7 8 6 7 3 5 6 7 13 10 12 12 13 6 6 8 8 7 9 3 11 11 5 7 7 2 6 9 7 12 16 16 16 17 18 14 4 7 12 18 9 8 8 17 24 24 16 5 10 13 16 14
23 22 22 21 20 19 19 18 17 15 16 18 11 7 6 1 2 6 5 8 4 10 5 7 2 9 2 3 5 7 8 9 6 8 2 7 3 6 3 6 3 3 6 8 13 7 9 14 12 5 11 10 11 5 9 16 9 13 8 17 14 14 12 13 14 9 10 11 13 11 13 8 24 6 8 6 13 20 23 20 14 12 13 10 9 11 12
24 22 21 23 20 19 19 18 17 17 16 15 11 6 5 2 2 3 5 3 5 9 8 6 6 6 4 7 8 10 11 12 7 7 5 5 7 4 9 4 6 9 9 9 14 13 8 12 12 10 5 9 6 7 12 8 14 11 11 12 12 14 10 4 10 12 12 14 14 13 16 19 18 20 16 16 26 23 19 14 18 19 15 11 10 11 13
24 24 22 22 21 21 21 19 17 16 17 18 15 5 5 4 3 2 3 4 5 8 6 8 5 8 10 12 12 11 12 11 11 6 8 10 3 6 8 11 8 3 2 2 2 2 4 3 2 8 8 7 4 16 11 12 15 6 14 9 12 15 18 13 14 11 14 15 15 18 12 12 13 24 23 24 29 26 23 21 19 17 15 11 10 15 13
23 23 24 24 21 21 21 20 19 17 17 18 13 4 7 3 2 5 2 1 3 4 3 6 5 8 7 11 11 12 12 10 13 13 10 9 10 7 6 8 11 3 3 2 4 5 5 6 13 7 12 11 12 12 13 15 12 10 12 15 19 15 21 17 15 18 16 23 17 1 8 16 15 19 22 23 18 20 22 22 19 15 18 14 9 11 10
24 22 23 24 24 21 21 22 20 18 18 17 13 4 4 5 3 1 1 4 3 5 6 5 4 4 8 13 11 3 6 9 13 14 10 10 11 11 6 5 4 4 4 7 2 5 3 5 4 3 11 4 6 15 14 15 18 13 15 12 11 19 18 17 19 15 12 21 12 21 20 18 19 17 18 18 17 18 18 20 19 20 20 12 7 11 9
25 23 21 22 26 26 23 21 20 17 17 19 15 9 4 1 4 7 5 4 3 3 6 4 7 10 6 2 4 5 8 8 6 9 9 10 12 11 13 6 3 6 12 11 4 8 4 8 6 5 12 2 5 11 4 14 11 12 19 14 10 14 15 21 20 18 20 21 15 20 20 21 19 16 15 18 22 22 17 16 17 19 16 14 13 7 6
24 25 25 25 25 24 23 21 19 20 19 19 16 4 3 7 2 3 2 1 2 1 5 8 8 2 4 4 4 9 1 1 1 3 2 6 8 12 14 12 13 5 9 8 10 12 10 11 8 9 12 8 4 11 9 4 7 4 12 8 5 3 6 18 10 17 20 16 17 13 17 13 14 12 14 17 18 19 22 22 18 13 13 13 10 8 14
25 24 21 23 25 23 23 22 21 21 20 17 9 5 8 6 6 9 7 5 3 5 5 8 7 3 1 6 4 1 1 1 4 6 11 10 9 6 7 9 11 10 10 10 8 10 7 9 8 11 9 8 1 10 6 8 10 10 13 7 5 9 11 3 7 14 14 14 15 14 16 17 19 23 22 19 17 18 17 14 13 15 19 19 19 17 13
25 25 24 23 22 21 22 22 21 21 20 18 10 8 5 5 7 9 7 7 7 9 7 6 5 7 3 2 9 13 8 8 9 9 10 9 7 6 7 9 8 9 9 9 11 8 10 14 14 6 6 2 7 16 11 13 11 13 16 10 7 13 14 8 15 14 17 11 15 13 18 20 21 20 17 17 17 17 19 20 22 21 20 20 20 20 18
24 21 23 22 24 22 21 21 20 19 20 16 3 1 2 6 7 9 10 8 8 4 4 7 7 6 7 7 3 3 6 6 6 8 7 6 9 9 10 9 10 9 9 9 10 10 11 13 9 10 8 4 9 7 3 13 12 17 15 11 17 17 17 21 24 23 26 20 19 13 16 20 20 20 21 20 15 13 18 21 21 22 22 21 20 20 20
24 21 20 21 21 21 21 20 19 20 18 5 3 1 2 3 8 9 11 10 9 5 5 4 7 5 4 1 2 7 7 6 7 9 9 9 10 10 10 10 10 9 9 9 8 13 11 10 9 10 11 6 14 12 15 13 15 13 4 9 14 16 19 21 21 23 24 17 18 18 20 24 21 21 21 19 18 16 16 16 19 20 20 20 21 20 18
21 23 21 21 21 21 22 22 21 19 17 1 5 2 2 4 5 6 11 7 5 4 2 4 9 5 7 3 8 8 9 10 8 9 11 11 11 12 10 7 8 8 9 8 9 13 8 13 9 13 10 15 11 12 14 13 18 14 9 13 16 18 18 19 19 22 23 23 22 22 20 22 21 19 20 18 18 14 13 11 16 19 20 18 20 21 21
21 19 19 21 21 21 21 22 22 18 7 7 6 6 4 5 2 3 6 6 7 4 2 4 5 2 2 3 3 4 6 11 7 1 2 4 6 8 10 9 7 8 8 9 10 7 10 11 13 14 12 10 10 13 12 16 21 19 12 18 22 21 18 16 17 17 18 18 18 21 21 23 23 23 21 16 17 13 16 18 18 18 18 17 17 15 15
20 20 21 22 21 19 18 20 20 14 7 7 12 14 14 12 6 5 6 7 5 3 3 3 3 3 3 6 4 1 3 1 1 3 6 5 6 4 5 5 7 7 9 10 5 7 5 10 10 13 13 7 12 10 13 18 17 14 16 19 17 17 19 20 19 19 17 14 12 18 21 20 21 19 20 21 22 23 23 21 17 14 13 11 12 12 13
18 19 19 21 20 19 19 20 20 16 7 3 4 6 8 13 14 6 5 4 1 0 2 3 2 3 5 4 4 9 3 4 5 6 5 3 3 4 5 5 5 5 4 10 8 9 6 8 11 11 7 11 9 11 17 13 12 19 20 20 19 20 20 20 20 23 23 21 20 20 23 23 23 21 21 22 22 19 16 13 11 11 13 14 16 17 17
18 19 19 18 18 17 17 11 2 1 3 3 5 4 2 10 14 13 10 4 2 2 1 2 2 2 3 3 3 7 1 2 7 7 6 6 4 6 3 5 3 8 5 7 7 7 9 9 5 10 14 8 13 14 10 11 17 16 15 17 17 18 17 19 19 18 19 19 21 23 25 26 26 25 25 25 24 23 23 22 18 17 18 17 18 17 14
18 16 15 15 8 4 1 3 3 2 1 4 4 4 11 14 14 9 10 8 5 4 3 3 2 4 2 7 5 5 2 1 4 2 3 3 3 0 4 3 8 8 4 6 9 6 10 4 8 15 7 13 14 9 12 10 16 14 16 19 18 18 19 21 22 21 21 20 22 23 24 24 24 26 24 24 24 22 23 23 22 17 19 20 19 15 12
14 14 12 2 4 2 1 3 2 4 6 4 5 6 5 6 5 3 1 1 2 1 3 2 3 6 7 8 1 4 2 11 2 3 1 1 5 3 1 1 7 4 6 4 5 9 10 7 10 12 10 14 14 13 16 16 18 18 19 18 16 16 18 20 21 22 23 22 23 20 18 21 22 21 21 22 22 21 21 23 21 20 21 22 22 20 19
15 5 4 2 2 1 2 3 3 4 7 10 11 5 3 4 1 0 1 3 2 4 2 3 7 6 2 2 8 7 2 7 4 2 2 2 3 3 3 4 6 4 11 7 8 8 6 5 7 11 13 14 18 20 21 21 21 20 19 18 18 19 20 20 21 21 22 23 22 23 23 24 25 23 22 24 23 24 23 22 22 21 21 22 23 22 20
6 3 3 1 3 4 4 3 3 7 7 4 4 2 1 1 2 0 3 1 0 4 3 5 8 9 9 7 10 5 7 6 4 0 4 3 2 5 2 6 2 6 5 5 7 7 9 6 7 8 11 10 14 17 17 19 17 16 13 12 12 14 16 17 17 18 19 18 20 20 19 20 20 23 20 20 20 20 21 21 21 20 21 21 22 21 20
3 1 3 4 6 3 1 2 4 5 2 2 2 2 1 0 3 3 1 1 2 3 2 6 7 8 9 13 11 10 3 5 6 8 9 6 1 4 3 3 2 5 8 6 6 3 7 5 4 5 7 5 11 12 12 10 8 10 13 14 15 15 16 17 19 19 21 24 24 23 21 21 21 20 19 19 20 22 22 20 19 19 19 20 21 21 21
2 2 1 4 4 2 2 2 3 4 2 2 1 1 2 1 1 1 1 2 2 5 2 3 2 3 4 6 6 10 7 3 3 1 1 5 4 1 1 5 2 5 4 7 3 4 3 5 6 10 13 13 17 10 11 13 11 12 12 13 16 15 16 18 20 20 20 21 21 22 22 24 23 22 20 21 21 21 21 20 19 17 18 19 21 20 19
6 6 2 2 3 3 2 1 2 2 1 1 2 2 2 1 1 3 1 5 6 2 5 3 3 5 7 10 8 4 4 1 1 1 1 3 3 5 5 2 1 4 5 4 2 1 3 8 8 11 14 10 8 11 14 15 14 15 20 19 16 16 17 17 20 23 22 18 18 21 23 24 26 23 21 20 20 20 19 19 20 17 17 16 15 13 6
10 9 5 3 1 0 1 2 2 2 3 2 2 1 2 1 3 5 4 3 2 2 5 0 2 1 2 2 1 2 4 1 1 2 2 4 3 1 1 3 2 4 4 1 0 3 7 8 9 14 8 5 8 12 10 8 14 15 16 13 13 13 15 18 19 22 24 21 20 21 22 24 25 24 24 25 26 27 24 21 20 20 19 18 15 12 11
5 3 3 0 1 2 3 5 1 3 2 2 4 6 5 3 3 1 0 5 1 1 3 3 3 1 5 1 2 1 0 1 3 1 2 2 0 2 2 3 6 5 3 2 2 9 10 6 11 7 6 5 10 12 14 17 16 17 20 18 13 15 18 20 19 19 26 26 22 21 20 22 24 24 23 21 21 23 23 22 20 19 15 8 9 11 12
3 0 2 1 0 1 3 2 1 2 5 5 4 3 4 9 10 9 8 1 2 0 3 4 3 1 2 4 1 2 0 3 2 3 3 1 2 2 2 4 2 1 1 8 6 9 5 11 3 8 10 15 13 14 16 15 15 16 19 25 22 14 16 19 23 20 19 18 21 23 23 24 22 21 22 22 21 19 18 21 20 11 10 10 10 9 8
1 3 2 2 2 1 2 2 1 1 3 2 4 5 6 3 2 2 1 3 2 4 5 4 3 1 3 3 2 3 1 1 1 3 2 1 2 5 4 1 0 4 6 6 8 13 14 10 3 5 10 11 15 14 14 14 15 14 16 21 27 26 24 20 21 21 21 21 22 23 24 23 23 22 22 20 15 12 11 11 7 8 7 8 8 9 8
1 0 1 1 1 1 2 2 5 5 2 1 1 0 2 2 4 4 2 4 3 3 2 4 2 3 2 3 1 3 1 1 1 2 1 2 4 3 2 3 6 4 8 11 10 9 8 2 5 10 12 16 18 17 15 15 13 15 18 18 20 25 25 24 23 22 22 22 24 23 22 23 23 22 18 15 6 5 3 1 3 4 6 8 9 10 10
2 1 2 2 3 2 3 5 1 1 4 3 2 3 4 1 3 3 5 4 4 2 3 3 3 4 3 2 3 5 2 2 2 4 3 2 1 1 2 3 6 5 5 7 12 2 3 6 10 13 14 14 15 18 18 18 20 20 19 21 23 23 24 25 26 27 25 24 24 23 25 24 22 17 7 1 5 6 6 6 7 10 12 12 11 11 12
2 3 3 2 2 2 1 1 2 1 1 3 4 5 6 6 4 1 4 4 4 3 3 1 1 2 3 1 2 2 3 2 3 3 1 1 2 5 3 7 8 11 4 1 2 4 7 11 12 13 14 16 15 16 17 16 16 18 19 18 21 22 23 23 25 25 26 23 22 22 21 17 8 1 3 5 7 7 7 8 9 9 9 12 13 13 13
2 0 1 2 2 3 1 1 0 4 1 4 4 5 4 3 3 2 3 4 4 5 4 5 3 2 3 1 1 2 3 2 3 2 3 4 4 3 5 11 9 9 4 2 5 7 10 10 12 15 15 16 16 16 19 19 18 20 19 19 19 19 21 22 25 24 23 22 22 16 8 6 5 5 5 6 6 7 10 11 10 11 10 9 11 12 13
1 1 2 4 3 4 2 4 5 6 2 1 3 3 4 2 3 3 6 5 6 4 0 1 0 2 2 3 2 3 3 1 0 5 4 5 1 2 4 11 5 1 7 7 8 10 11 10 11 13 16 18 17 18 18 19 20 20 21 20 21 20 20 22 22 21 23 21 15 12 11 9 8 7 6 7 10 13 16 14 12 11 12 12 12 13 14
2 2 2 3 6 6 3 5 8 7 5 4 3 3 3 1 4 4 6 5 3 1 1 2 1 1 2 5 2 2 3 1 4 2 5 3 3 4 5 2 4 6 9 13 13 10 10 10 10 13 15 17 20 21 22 21 21 21 19 20 19 19 21 21 20 19 20 17 12 10 9 9 9 8 7 10 12 13 15 11 9 12 12 10 13 16 15
Wind_Direction
321 321 324 323 323 309 272 248 235 223 212 187 189 156 154 191 213 40 161 163 159 168 202 191 201 220 243 43 291 181 26 200 210 190 191 211 184 240 222 213 195 248 217 151 191 180 232 177 211 181 223 242 214 210 152 129 147 63 69 62 252 99 107 208 260 279 325 39 328 326 324 106 88 270 116 135 200 196 208 223 169 188 187 200 265 250 261
320 320 318 314 318 321 316 284 253 232 204 195 172 191 197 198 153 175 209 182 171 170 187 203 209 219 257 229 245 136 218 175 208 205 200 186 179 211 218 39 209 246 149 166 224 176 247 220 186 239 216 253 261 144 158 157 178 160 210 155 195 144 227 171 239 318 287 331 40 22 340 22 221 201 205 206 234 240 246 59 69 236 225 166 131 245 258
319 320 318 317 318 322 322 314 288 249 212 200 173 201 176 128 65 56 183 210 199 195 197 201 183 211 217 211 228 225 233 222 221 204 205 210 205 151 237 223 137 212 170 207 241 205 210 262 215 223 205 237 115 214 167 186 184 214 208 155 170 179 166 158 195 226 239 246 239 231 215 210 215 238 136 191 206 203 125 248 211 230 229 135 201 250 251
320 326 325 325 326 322 325 333 322 282 237 203 203 195 129 173 185 149 182 218 242 249 316 213 210 208 211 230 233 229 234 260 220 195 234 197 234 207 194 356 177 209 165 224 228 237 229 213 236 181 250 254 358 287 240 192 188 2 41 153 153 192 196 191 209 218 231 242 257 197 109 75 190 231 186 215 214 212 207 234 230 226 200 173 227 236 257
329 325 327 328 331 327 324 332 336 335 278 207 203 218 217 153 204 143 196 228 252 244 227 228 224 221 187 217 163 223 221 231 325 180 232 200 203 221 204 205 166 225 205 222 235 227 230 223 246 241 231 285 260 324 140 291 337 353 22 303 101 76 210 222 224 226 235 244 256 233 158 199 219 197 222 220 206 198 206 212 236 185 101 247 236 246 264
332 332 327 326 328 330 326 324 325 333 339 235 207 225 155 224 210 184 179 170 191 205 236 219 223 236 177 225 192 239 223 218 235 177 218 114 182 192 254 214 221 223 208 212 229 220 227 176 232 237 250 238 249 36 231 188 164 103 206 301 171 175 228 227 228 237 241 246 252 243 163 227 224 197 220 229 216 200 208 229 238 193 214 237 252 250 246
325 329 329 327 327 329 335 332 325 328 333 316 217 234 216 235 2 237 150 224 170 201 206 202 207 212 201 220 207 225 221 225 217 198 107 181 219 194 224 217 219 220 223 208 231 218 227 234 230 228 231 199 136 239 327 277 104 158 182 207 175 154 242 248 244 259 251 258 256 244 199 244 254 242 240 245 239 214 215 237 238 225 233 245 258 264 263
313 320 323 327 327 324 331 338 334 337 330 313 255 233 222 207 196 228 214 224 214 215 228 220 205 218 202 217 209 221 222 231 222 183 169 216 218 203 224 233 229 219 223 214 224 226 225 228 238 203 202 166 189 221 196 167 349 217 199 161 254 173 236 226 255 268 259 259 262 256 223 246 257 262 263 255 251 242 232 239 247 252 263 254 255 264 263
300 307 313 318 323 323 322 332 337 344 350 276 251 248 229 255 222 147 160 221 217 228 209 207 200 213 210 221 225 232 229 236 223 225 197 216 202 182 220 230 243 112 196 211 223 228 229 226 235 210 163 209 193 188 256 162 161 187 210 175 281 180 249 230 271 267 266 262 264 267 234 235 242 257 259 257 254 250 249 243 241 244 250 253 250 246 249
289 295 307 310 314 320 319 318 329 338 334 282 280 264 260 249 249 193 228 241 171 210 204 212 205 221 207 206 214 210 222 226 219 254 214 235 226 209 213 227 226 209 202 222 226 230 229 232 232 237 200 189 192 201 176 168 161 175 200 151 153 181 196 221 239 245 250 257 262 187 163 96 280 240 242 255 266 252 254 259 247 226 240 253 247 248 249
303 298 297 302 307 310 317 315 313 324 332 294 286 289 323 297 290 259 214 254 183 209 208 214 206 211 199 214 224 223 232 226 212 218 226 205 224 215 211 214 197 223 219 227 232 237 247 245 250 248 209 203 193 192 171 178 198 186 164 137 215 197 218 236 214 242 243 249 231 135 155 230 238 244 84 215 247 254 260 261 256 247 212 240 246 258 265
293 290 293 295 297 301 306 315 316 317 322 299 297 286 274 297 282 262 258 235 234 201 208 215 200 209 215 215 214 219 217 220 217 209 227 220 215 195 205 216 207 238 237 250 86 108 66 62 51 70 177 198 208 216 210 225 236 225 190 207 213 213 211 231 217 239 241 186 111 193 213 233 246 343 250 248 251 256 258 264 253 251 242 243 252 259 262
292 291 288 289 291 290 293 304 315 323 329 327 313 303 318 332 292 282 279 277 266 211 231 229 217 225 223 226 222 226 226 228 227 225 231 234 237 183 200 201 207 232 129 124 123 124 204 223 220 248 259 267 262 259 249 241 241 232 208 212 219 222 217 219 226 223 22 109 198 234 235 242 340 279 262 258 237 231 267 265 250 246 247 245 244 252 258
288 288 289 287 286 289 286 283 298 307 313 326 312 308 316 321 314 295 271 281 250 207 248 256 229 236 227 230 228 230 229 238 240 233 235 222 236 228 214 213 216 173 142 127 143 119 150 128 238 223 238 215 236 242 232 233 232 230 221 215 216 221 226 216 242 204 236 217 221 235 316 319 288 282 270 244 217 233 224 256 261 258 247 242 242 249 255
296 296 290 287 285 284 288 287 282 288 300 307 294 291 287 298 302 310 298 272 273 259 192 239 169 232 231 235 228 242 230 229 229 235 232 233 240 230 228 215 129 154 135 131 154 184 193 153 220 205 218 173 213 234 185 232 221 223 223 218 212 211 219 204 226 212 215 236 242 247 228 241 249 244 253 242 191 197 213 207 270 258 259 241 232 241 250
280 282 288 292 292 286 281 285 288 285 284 291 290 284 269 278 277 273 295 293 321 274 228 228 239 253 249 242 230 229 228 225 227 239 237 225 233 244 244 198 181 142 170 210 168 186 167 216 226 213 219 210 215 216 231 170 291 227 214 215 213 213 219 224 224 229 218 232 233 231 228 234 228 251 254 174 191 163 152 157 253 255 254 242 232 233 241
284 283 281 281 286 292 291 282 278 283 287 286 274 276 288 260 261 277 301 249 230 254 305 319 315 305 291 271 248 244 230 233 213 224 233 225 221 217 251 85 180 187 204 220 190 194 203 219 227 233 248 184 200 210 124 196 172 263 17 196 215 208 205 215 229 230 225 233 234 238 215 236 228 243 252 177 136 117 86 286 265 255 252 228 221 220 232
280 282 280 279 278 279 284 288 284 277 274 278 279 273 270 294 266 264 249 237 254 263 211 325 12 279 235 324 285 295 231 234 226 239 242 237 201 167 200 156 199 262 189 222 154 218 218 213 219 218 234 199 185 113 220 159 203 165 188 173 153 202 211 209 220 218 225 223 239 249 268 256 248 245 156 139 129 108 163 237 253 255 195 190 187 213 218
277 278 280 280 279 280 279 280 284 287 284 277 276 268 258 223 285 310 290 270 240 244 315 315 245 267 275 297 247 277 312 321 275 226 225 221 229 174 154 222 173 207 173 214 198 218 216 228 217 226 240 208 168 216 147 213 220 183 130 110 239 210 198 231 216 223 222 226 230 230 239 233 237 246 141 167 95 226 224 239 243 256 218 200 191 209 214
274 276 279 277 275 273 274 277 277 279 283 285 280 246 242 209 176 245 247 271 258 274 278 277 229 256 245 243 280 279 308 303 290 271 217 233 353 105 68 234 242 98 209 198 223 202 211 225 206 209 222 219 219 159 219 226 204 205 170 195 200 175 185 195 196 216 227 230 235 235 241 186 216 154 131 210 201 236 233 249 273 266 248 228 217 212 223
278 275 271 271 271 271 271 272 272 272 273 276 280 288 294 239 219 192 200 242 304 300 279 225 233 282 279 254 241 249 242 248 276 296 330 325 316 299 202 239 176 178 193 189 215 208 201 225 201 220 200 207 208 196 223 205 230 215 178 208 218 159 213 185 210 184 208 213 209 225 212 227 185 158 196 198 213 227 237 238 250 254 252 240 227 220 215
264 262 265 270 275 280 278 274 271 272 275 275 275 258 253 238 197 271 236 213 229 242 259 302 279 254 254 245 246 244 250 259 271 293 303 304 255 258 310 314 308 301 287 253 269 262 231 218 189 220 215 210 166 225 206 220 230 166 214 196 241 154 216 202 227 185 206 228 219 228 224 236 180 196 217 217 214 223 234 236 237 244 253 237 216 229 216
267 274 276 273 264 260 260 263 265 264 264 265 264 211 249 212 176 229 189 296 248 257 274 272 258 258 269 267 247 235 237 234 246 249 226 239 278 271 247 285 287 258 273 317 295 286 293 259 234 233 240 221 203 230 212 222 231 177 215 196 225 190 213 224 240 236 219 239 233 162 213 227 217 212 219 227 227 224 231 238 245 240 244 238 209 230 215
263 260 262 266 270 270 269 266 264 264 262 257 253 197 236 213 211 172 3 227 205 280 281 248 236 263 222 252 269 258 232 230 229 237 229 205 244 268 252 219 255 293 243 251 320 300 300 290 290 313 268 251 208 226 214 223 221 211 236 222 218 225 219 228 237 234 226 248 190 229 226 226 227 224 232 240 236 231 223 236 238 244 244 243 212 226 215
263 263 263 266 268 266 266 267 264 260 262 270 273 254 217 204 203 188 180 230 223 205 253 288 233 228 239 192 269 303 257 239 233 233 230 214 219 237 259 264 221 266 288 290 324 294 268 282 292 261 267 243 254 263 233 250 252 178 237 232 224 244 196 235 230 235 226 245 221 227 230 231 227 219 222 233 238 243 240 234 234 242 250 247 242 228 242
262 261 260 260 265 269 271 270 272 268 260 254 256 233 195 233 200 123 125 206 238 189 246 266 266 206 234 272 260 235 219 84 271 284 241 239 231 237 253 269 276 269 274 282 280 259 262 253 240 256 272 269 221 265 259 252 305 331 277 264 242 332 155 232 207 232 242 253 255 259 261 256 255 245 233 231 234 237 240 242 248 256 262 256 249 213 229
264 264 263 266 265 266 266 265 260 262 263 265 269 249 231 227 159 160 180 182 232 290 225 245 274 303 200 214 252 285 246 293 302 289 275 261 255 259 265 271 280 290 283 280 265 281 272 266 256 254 238 262 246 265 281 272 260 253 256 249 266 282 252 289 291 256 250 235 238 228 248 249 249 247 242 237 235 244 249 251 245 239 243 246 246 239 229
257 258 256 258 261 264 266 265 265 266 267 262 246 236 189 194 200 201 204 178 181 230 259 272 274 254 237 305 263 266 272 248 228 244 248 263 265 248 239 246 260 269 274 282 281 261 265 270 268 272 269 311 256 254 219 249 248 249 245 236 218 238 246 242 249 243 253 234 241 231 243 252 247 252 249 244 236 232 237 239 241 239 236 237 240 246 244
261 261 262 258 259 256 255 258 260 264 266 268 247 294 252 226 220 208 206 197 197 221 238 264 273 301 275 253 89 357 262 220 218 224 235 243 246 243 245 243 243 249 254 257 262 268 264 265 284 279 256 301 304 287 293 244 232 237 241 225 227 236 237 235 245 252 255 250 252 238 243 249 253 252 254 254 247 231 233 238 239 238 237 236 237 235 238
259 256 259 261 261 263 264 263 262 258 264 276 78 54 330 283 217 207 202 191 192 174 211 234 257 244 226 63 308 241 264 260 226 236 239 242 246 246 242 242 248 240 242 245 247 257 251 260 248 252 260 252 259 277 275 271 272 263 264 246 242 245 239 240 243 246 257 252 254 252 253 257 257 258 256 255 252 244 240 237 240 240 238 236 237 236 234
263 262 262 263 264 263 262 260 259 256 257 196 91 87 194 264 271 194 197 192 171 134 210 235 252 291 288 252 239 242 236 251 251 235 235 234 241 246 249 238 238 234 252 245 240 251 256 252 256 249 242 235 243 262 260 271 266 265 238 250 251 248 246 246 245 249 255 261 259 259 257 260 262 265 259 255 257 251 252 244 244 241 241 235 233 232 235
258 260 262 260 256 255 259 262 261 261 248 166 185 182 176 197 227 114 169 170 144 173 210 267 274 264 236 271 225 225 216 230 230 218 232 183 236 223 245 213 231 209 222 238 240 252 237 256 251 256 253 237 237 253 244 248 255 259 264 260 260 263 266 266 264 262 262 263 272 274 267 263 259 257 264 261 263 253 248 249 246 248 243 239 237 238 237
258 259 259 259 262 264 258 261 263 259 237 231 224 246 258 243 159 127 152 137 143 192 209 196 212 237 256 240 282 333 218 119 50 209 257 198 241 199 238 206 224 234 216 242 224 249 212 237 245 255 248 240 245 249 251 246 253 267 261 262 265 267 266 267 271 272 270 268 259 262 264 265 270 271 271 269 267 266 264 260 255 253 252 249 247 243 240
259 261 264 264 262 264 259 257 264 272 295 291 277 241 227 235 244 184 111 93 115 314 73 143 215 235 244 326 3 275 160 149 238 193 265 260 183 182 229 238 186 228 188 220 228 242 238 242 245 253 260 238 242 256 251 254 255 256 257 261 264 267 267 269 264 264 264 265 262 258 261 263 264 265 269 270 272 271 272 273 268 260 252 248 245 239 235
256 254 254 257 259 265 279 292 344 161 200 225 240 254 186 199 204 180 187 157 98 254 154 277 180 237 324 346 235 267 193 125 254 231 211 264 221 209 241 248 247 240 242 220 242 222 252 236 263 256 243 246 240 241 253 263 258 258 263 265 262 267 271 268 266 265 267 264 264 263 263 264 266 266 263 264 264 265 265 263 256 249 253 249 247 246 239
252 252 255 262 288 282 274 159 157 128 201 221 232 169 190 201 204 195 201 200 191 196 191 240 169 216 195 266 269 271 91 227 255 317 202 202 337 267 206 211 252 232 244 232 255 233 248 236 248 255 254 252 245 254 263 257 262 259 260 262 265 264 266 268 275 277 273 271 268 268 267 265 263 264 264 263 263 261 259 260 258 249 247 253 250 245 240
269 268 274 58 86 58 234 224 196 182 210 181 181 157 133 106 19 70 137 215 301 136 180 167 184 221 202 242 263 280 280 268 241 278 306 196 207 235 146 266 239 259 252 251 220 242 245 229 248 259 251 254 266 263 269 272 273 278 275 279 284 285 284 282 282 284 284 282 281 278 276 275 273 271 270 267 264 264 262 258 255 249 246 244 247 244 238
259 265 74 63 68 130 268 269 215 226 169 156 137 76 354 38 111 103 255 221 225 132 261 182 239 242 208 146 250 243 297 263 279 252 290 249 269 268 210 223 241 249 254 249 241 208 243 217 234 236 247 242 253 255 258 262 264 264 266 272 273 271 271 274 278 279 279 281 279 279 278 275 273 270 269 267 264 262 257 256 253 248 245 244 244 245 245
359 74 62 114 143 205 198 245 250 167 117 44 52 68 343 18 96 251 224 192 354 222 189 191 234 221 228 230 251 250 219 273 330 12 266 257 267 297 270 274 269 252 258 260 260 172 253 220 235 237 247 243 247 250 249 255 261 268 273 279 296 312 320 316 309 299 291 284 284 281 279 282 284 285 282 281 279 272 267 262 258 252 248 246 245 244 244
88 86 150 175 214 213 63 29 90 120 77 97 332 106 166 128 130 246 100 64 280 264 189 235 210 226 207 223 232 261 173 144 224 250 250 280 159 228 256 259 262 265 263 248 259 263 270 275 266 280 267 255 261 259 263 284 314 340 351 342 343 334 333 325 322 318 317 313 309 302 294 285 279 276 277 278 281 280 278 274 268 265 259 253 245 240 236
130 115 159 209 214 136 166 134 39 46 78 91 51 357 88 307 238 210 109 226 212 246 207 201 147 207 235 210 210 242 250 128 258 175 190 233 242 164 257 254 244 266 247 252 253 230 247 258 253 253 260 258 260 301 357 10 356 334 325 334 335 329 328 323 315 313 315 313 310 304 300 296 291 285 282 277 273 271 271 271 273 273 270 266 259 248 240
200 166 175 90 75 82 75 32 102 89 35 111 137 214 183 223 30 1 169 177 227 214 286 149 260 204 229 186 203 177 287 157 154 191 178 277 237 199 231 231 245 234 247 229 203 164 231 250 251 254 255 265 6 28 12 350 341 332 320 324 323 324 323 318 314 312 309 304 297 296 293 292 290 288 283 281 277 274 271 269 265 263 264 266 264 267 250
105 99 89 82 86 156 112 132 195 126 180 170 101 256 160 199 211 180 241 254 295 143 258 45 243 244 296 70 326 201 195 165 128 250 197 231 308 8 288 268 244 245 242 347 288 267 249 248 253 253 269 28 24 0 353 332 323 307 294 296 309 316 313 304 304 306 304 303 298 295 293 292 290 287 285 280 277 274 272 266 261 262 262 257 242 211 188
120 112 79 157 129 243 120 218 145 72 207 164 163 197 182 203 261 70 318 251 171 273 267 171 254 99 250 342 137 271 11 323 193 33 289 261 106 256 269 238 242 262 333 309 268 254 253 244 245 280 35 346 354 352 346 340 327 325 317 315 321 322 317 311 303 306 310 311 309 303 298 289 283 283 280 273 267 264 264 266 266 263 257 231 195 192 179
121 111 92 64 120 240 94 232 55 148 197 208 179 212 163 203 215 195 208 297 106 96 14 32 15 62 210 275 38 316 208 252 356 105 253 206 254 211 214 244 243 320 221 255 259 259 261 254 0 24 348 346 336 338 334 326 328 319 314 309 310 315 316 312 304 300 292 290 295 302 299 292 287 280 276 272 268 265 265 264 263 238 204 193 187 171 168
142 159 129 162 219 195 149 239 68 335 279 193 213 198 207 235 121 180 41 5 56 19 17 352 329 325 274 255 141 234 86 154 330 230 216 191 231 249 230 251 69 271 255 245 252 255 256 271 29 332 342 325 323 322 319 315 312 314 313 313 312 312 310 306 296 291 286 286 289 296 293 287 283 280 278 276 274 269 260 260 249 205 180 158 162 147 137
89 51 88 92 161 244 82 172 227 204 192 218 271 257 162 148 93 82 41 345 25 316 293 255 204 225 238 286 11 331 311 162 202 245 96 264 236 262 236 248 251 233 254 256 253 255 265 73 344 328 329 322 320 318 316 314 314 312 312 302 303 307 308 308 302 297 293 291 286 287 290 287 281 277 271 272 302 348 348 51 71 85 117 122 112 114 114
153 179 105 173 222 160 183 242 185 73 45 52 0 4 356 64 87 40 359 340 306 344 10 355 9 2 344 288 121 218 242 225 253 253 193 244 269 276 257 238 246 250 238 254 257 305 350 352 331 326 320 320 313 314 317 319 319 318 311 309 307 308 309 309 307 304 302 295 289 286 288 286 278 273 272 308 40 17 22 44 72 86 95 101 104 108 115
140 149 170 211 209 187 210 43 75 132 323 349 28 39 25 51 69 4 335 348 345 314 299 129 190 84 257 202 200 217 256 186 225 247 172 216 193 235 234 254 257 259 253 334 307 25 315 325 315 314 312 312 315 313 310 310 307 308 312 306 307 306 304 300 299 296 296 289 280 276 277 281 291 350 52 54 50 32 36 54 69 79 93 110 118 118 113
133 255 95 132 344 291 151 89 80 277 300 358 29 23 8 42 82 50 11 341 340 317 277 224 238 192 252 50 284 208 237 205 220 253 224 225 235 251 244 256 242 256 256 73 306 315 315 316 319 314 313 311 309 311 311 310 311 307 308 309 307 307 304 300 300 300 296 294 302 306 327 5 12 20 42 55 62 66 59 56 62 72 75 80 96 99 102
222 184 64 14 229 249 113 229 220 230 217 61 31 13 15 23 16 324 2 332 318 309 82 157 178 174 245 219 234 238 237 154 75 224 208 231 197 224 221 248 262 112 274 287 291 302 310 312 313 310 310 308 309 308 308 307 307 307 309 311 311 306 304 308 305 302 302 306 314 347 6 15 17 33 45 69 79 78 72 55 57 67 76 75 75 86 89
139 163 146 51 45 16 10 84 65 69 64 76 79 21 13 6 350 323 331 318 294 106 52 334 350 229 220 230 247 309 327 312 237 241 257 250 71 213 258 267 322 315 319 316 310 308 304 302 300 302 304 305 309 310 308 308 307 308 312 313 310 310 313 315 313 310 309 310 332 1 18 26 36 42 51 64 72 73 63 50 51 60 66 66 76 78 83